Regional Weather Roundup
Issued by NWS Wakefield, VA

Home | Current Version | Previous Version | Graphics & Text | Print | Product List | Glossary On
Versions: 1 2 3 4 5 6 7 8 9 10 11 12 13 14 15 16 17 18 19 20 21 22 23 24 25 26 27 28 29 30 31 32 33 34 35 36 37 38 39 40 41 42 43 44 45 46 47 48 49
000
ASUS41 KAKQ 252110
RWRAKQ

REGIONAL WEATHER ROUNDUP
NATIONAL WEATHER SERVICE WAKEFIELD VA
400 PM EST SUN JAN 25 2015

Note: "fair" indicates few or no clouds below 12,000 feet with no
significant weather and/or obstructions to visibility. * = Denotes
station may not report precipitation (e.g., rain,snow,etc.),
thunder or fog.

VAZ042-051-052>054-056-252200-
NORTHERN VIRGINIA

CITY           SKY/WX    TMP DP  RH WIND       PRES   REMARKS
WASH NATIONAL  CLOUDY    48  31  51 S10       29.84R
DULLES         CLOUDY    46  31  55 S7        29.82R
FORT BELVOIR   PTSUNNY   48  31  50 VRB3      29.84R
QUANTICO       PTSUNNY   44  32  62 S7        29.84S
FREDERICKSBRG* PTSUNNY   51  33  48 SW7       29.82F
STAFFORD*      PTSUNNY   49  30  47 CALM      29.86F
WARRENTON      CLOUDY    49  38  66 SW3       29.81S
CULPEPER*      CLOUDY    52  34  50 S7        29.82S
MANASSAS*      CLOUDY    48  32  53 SW5       29.83R
LEESBURG*      CLOUDY    46  34  61 S7        29.83R
WINCHESTER     CLOUDY    45  30  57 SW5       29.79S
FRONT ROYAL*   CLOUDY    43  32  65 S3        29.78S
LURAY*         MOCLDY    45  34  65 W7        29.79S
$$

VAZ048-049-060>072-079>083-252200-
CENTRAL AND SOUTH CENTRAL VIRGINIA

CITY           SKY/WX    TMP DP  RH WIND       PRES   REMARKS
RICHMOND       PTSUNNY   53  34  48 S6        29.83F
CHESTERFIELD*  FAIR      54  28  37 SW8       29.84F
PETERSBURG*    MOSUNNY   55  32  41 S6        29.84S
HANOVER        PTSUNNY   52  32  46 S5        29.84F
TAPPAHANNOCK*  PTSUNNY   52  27  38 S3        29.84S
QUINTON*       FAIR      51  32  47 S5        29.83F
CHARLOTTSVILLE CLOUDY    49  32  52 S10       29.80F
GORDONSVILLE*  FAIR      49  33  53 S5        29.80F
ORANGE*        CLOUDY    50  34  53 S3        29.83S
LOUISA*        PTSUNNY   52  34  50 S6        29.80F
BUMPASS*       FAIR      50  32  50 S3        29.81F
FARMVILLE*     PTSUNNY   56  33  41 SW9       29.80S
CREWE*         FAIR      53  32  44 S6        29.82S
FORT PICKETT*  FAIR      51  34  51 S9        29.82F
CHASE CITY*    FAIR      56  35  45 SE7       29.82S
CLARKSVILLE*   FAIR      52  34  50 S6        29.82S
SOUTH HILL*    SUNNY     51  33  48 S7        29.88F
LAWRENCEVILLE* FAIR      51  35  54 S6        29.84S
EMPORIA*       SUNNY     52  32  46 SE6       29.86F
$$

VAZ088>098-252200-
SOUTHEAST VIRGINIA

CITY           SKY/WX    TMP DP  RH WIND       PRES   REMARKS
NORFOLK        SUNNY     48  31  51 NE6       29.87R
VIRGINIA BEACH MOSUNNY   52  32  46 SE5       29.87R
NORFOLK NAVAL  PTSUNNY   55  30  38 VRB6      29.88R
WEST POINT*    SUNNY     54  30  40 S7        29.86S
SALUDA*        FAIR      50  31  47 S7        29.85S
NEWPORT NEWS   SUNNY     54  32  43 S8        29.86S
LANGLEY AFB    SUNNY     51  31  46 SW10      29.86S
FORT EUSTIS    SUNNY     51  38  60 S8        29.84F
WILLIAMSBURG*    N/A     54  36  50 S8        29.86F
HR EXEC AP*    FAIR      52  30  43 SW8       29.89R
FRANKLIN*      SUNNY     51  32  48 SW7       29.87F
WAKEFIELD      SUNNY     52  32  46 S9        29.85F
$$

VAZ020-022-025-037-045-252200-
WEST CENTRAL AND SOUTHWEST VIRGINIA

CITY           SKY/WX    TMP DP  RH WIND       PRES   REMARKS
STAUNTON*      CLOUDY    46  32  58 SW7       29.79F
WAYNESBORO*    FAIR      46  32  58 S3        29.76F
HOT SPRINGS VA MOSUNNY   34  34 100 S3        29.70R
LYNCHBURG      PTSUNNY   50  31  48 CALM      29.80S
DANVILLE       MOSUNNY   56  29  35 SW9       29.79F
SOUTH BOSTON*  FAIR      56  29  36 S7        29.80F
MARTINSVILLE   MOSUNNY   56  30  37 S5        29.80F
ROANOKE        PTSUNNY   51  30  44 E5        29.78F
BLACKSBURG     MOSUNNY   49  29  45 S6        29.76F
DUBLIN*        MOSUNNY   50  33  53 CALM      29.74F
MARION*        MOSUNNY   50  30  46 CALM      29.74S
HILLSVILLE*    SUNNY     46  30  54 S8        29.73S
RICHLANDS*     FAIR      46  26  47 W3        29.71F
WISE*          PTSUNNY   45  28  53 S8        29.70F
ABINGDON*      PTSUNNY   53  27  36 NW7       29.71F
$$

MDZ021>025-VAZ099-100-252200-
SOUTHERN MARYLAND AND THE DELMARVA PENINSULA

CITY           SKY/WX    TMP DP  RH WIND       PRES   REMARKS
PATUXENT RIVER PTSUNNY   49  29  46 S7        29.85R
BAY BRIDGE APT   N/A     46  30  53 SE3       29.84R
LEONARDTOWN    MOSUNNY   48  30  49 CALM      29.86R
DOVER          CLOUDY    48  33  56 SW8       29.79R
GEORGETOWN     CLOUDY    48  31  51 SW5       29.85R
EASTON         CLOUDY    48  34  57 SW7       29.87R
CAMBRIDGE      PTSUNNY   48  32  53 S5        29.85R
SALISBURY      MOSUNNY   50  31  48 W9        29.85R
OCEAN CITY     MOSUNNY   48  30  49 W6        29.86R
WALLOPS ISLAND MOSUNNY   49  29  46 W6        29.87R
ACCOMACK*      SUNNY     48  27  43 SW8       29.87R
$$

NCZ012>017-030>032-252200-
NORTH CENTRAL AND EASTERN NORTH CAROLINA

CITY           SKY/WX    TMP DP  RH WIND       PRES   REMARKS
ROANOKE RAPIDS FAIR      54  34  47 S8        29.86F
RALEIGH        MOSUNNY   54  32  43 S10       29.84F
ELIZABETH CITY SUNNY     50  32  50 S8        29.90R
AHOSKIE*       SUNNY     51  33  50 S3        29.88S
EDENTON*       SUNNY     52  33  48 S5        29.89S
CURRITUCK*     SUNNY     51  29  43 S5        29.91R
KILL DEVIL HLS SUNNY     47  32  55 SE5       29.90S
MANTEO         SUNNY     46  30  53 S10       29.92S
CAPE HATTERAS  SUNNY     49  32  52 CALM      29.93S
TARBORO*       FAIR      55  34  45 SW6       29.88F
GOLDSBORO      SUNNY     55  38  53 SE6       29.85F
WASHINGTON     SUNNY     52  33  47 SW6       29.89S
GREENVILLE     SUNNY     54  32  43 SW3       29.90F
NEW BERN       SUNNY     55  33  43 E6        29.90S
WILMINGTON     SUNNY     52  35  52 S9        29.91R
$$

VAZ048-252200-
ELSEWHERE

CITY           SKY/WX    TMP DP  RH WIND       PRES   REMARKS
HARRISBURG PA  CLOUDY    37  32  82 NW6       29.81R
BALTIMORE      CLOUDY    47  30  51 W5        29.81R
ANNAPOLIS      CLOUDY    47  29  49 NW6       29.83R
ANDREWS AFB    PTSUNNY   48  31  52 SW6       29.82R
PHILADELPHIA   CLOUDY    45  31  58 W12       29.83R
HENDERSON NC   SUNNY     54  29  38 S8        29.82F
GREENSBORO     PTSUNNY   54  31  41 S14       29.77F
ROCKY MOUNT    SUNNY     54  33  45 S6        29.86F
$$

VAZ100-252200-
MARINE

STATION/POSITION TIME  TEMP    WIND        PRES    WAVE   SWELL
                       AIR SEA DIR/SP/G            HT/PER HT/PER
                 (UTC) (F)     (DEG/KT/KT) (MB)    (FT/S) (FT/S)
BRANDYWINE LGT   2100   45 38  250/  6/  8 1010.4R
CAPE MAY NJ      2100   43 38  220/  6/  8 1009.7R
LEWES DE         2100   47 38  280/  6/  8 1010.2R
15NM E FENWICK I 2100   43 43              1010.4R   3/11
OCEAN-CITY-INLET 2100   44 40  210/  3/  6 1010.5R
WACHAPREAGUE VA  2100   47 41  210/  8/ 10 1011.5S
THOMAS POINT MD  2100   45 38  160/  6/  7 1011.4R
GOOSES REEF MD   2100   41     VRB  8/ 10  1009.4R
COVE POINT MD    2100   40     180/ 10/ 11 1010.7R
SOLOMONS ISLAND  2100      39                N/A
BISHOPS HEAD MD  2100   44 41  180/ 11/ 13 1010.4R
PINEY POINT MD   2100          150/  7/  7   N/A
POTOMAC MD       2100   42     170/ 10/ 12 1009.8S
CAMBRIDGE MD     2100   48 36  200/  7/  9 1010.3R
LEWISETTA VA     2100   46 39   CALM  /  2 1010.2F
RAPPAHANNOCK LGT 2100          170/ 10/ 11 1011.9F
STINGRAY PT      2100   43     170/ 12/ 14 1011.7S
YORK RVR RNG VA  2100   45     170/  6/  7 1010.4F
YORKTOWN VA      2100   51 41  190/  7/  9 1010.6F
JAMESTOWN VA     2100   49     170/  4/ 10   N/A
DOMINION TERM VA 2100   49     240/  5/  6 1011.5R
KIPTOPEKE VA     2100      45  180/  7/  8   N/A
CHES BAY BRIDGE  2100   45 41   70/  7/  8 1011.2S
CAPE HENRY VA    2100   46     150/ 12/ 16 1010.4S
CHESAPEAKE LGHT  2000   45     170/ 12/ 13 1012.2F
WILLOUBY STN VA  2100   49     250/  3/  3 1011.9R
S CRANEY ISL VA  2100          200/  6/  7 1011.3R
CAPE HENRY BUOY  2100      45                N/A     2/11   2/11
1ST LANDING BUOY 2100   45     140/ 12/ 16 1011.4S
CAPE CHARLES BUO 2100      44                N/A     2/11   2/11
OFFSHORE WE BUOY 2100      47                N/A     3/10   3/10
64NM E OF VA BCH 2100   46 53  230/  8/ 10 1012.4R   4/10   3/10
DUCK PIER NC     2100   46 44  150/ 10/ 11 1011.8R
44100 DUCK FRF   2100      45                N/A     3/ 8   2/11
44056 DUCK FRF   2100      44                N/A     2/11   2/11
OREGON INLET NC  2100   47 46  170/  9/ 11 1013.2S
HATTERAS NC      2100   49 53  190/  3/  5 1013.6S



USA.gov is the U.S. government's official web portal to all federal, state and local government web resources and services.